Wetterdaten: Woche 05.02.18 - 11.02.18 (KW6)
Datum Zeit Temp. I. Temp. A. Feuchte I. Feuchte A. Luftdruck Regen Wind Richtung Sonnenschein UV Solar Taupunkt Windchill Windben
05.02.2018 00:00 22,6 C -1,8 C 58 % 93 % 1024,3 hPa 0,0 l/m 1,8 km/h (1 Bft) N-NO 0,00 h 0,0 UV-I 0 W/m -2,9 C -1,8 C 4,5 km/h (1 Bft)
05.02.2018 01:00 22,4 C -2,2 C 60 % 90 % 1024,6 hPa 0,0 l/m 1,8 km/h (1 Bft) NO 0,00 h 0,0 UV-I 0 W/m -3,5 C -2,2 C 5,3 km/h (1 Bft)
05.02.2018 02:00 22,3 C -2,7 C 60 % 90 % 1024,9 hPa 0,0 l/m 1,5 km/h (1 Bft) N-NO 0,00 h 0,0 UV-I 0 W/m -4,1 C -2,7 C 4,0 km/h (1 Bft)
05.02.2018 03:00 22,2 C -3,1 C 61 % 90 % 1025,2 hPa 0,0 l/m 0,9 km/h (0 Bft) NO 0,00 h 0,0 UV-I 0 W/m -4,5 C -3,1 C 2,6 km/h (1 Bft)
05.02.2018 04:00 22,0 C -3,7 C 60 % 90 % 1025,4 hPa 0,0 l/m 1,4 km/h (1 Bft) N 0,00 h 0,0 UV-I 0 W/m -5,0 C -3,7 C 3,3 km/h (1 Bft)
05.02.2018 05:00 21,9 C -4,3 C 60 % 91 % 1025,7 hPa 0,0 l/m 0,3 km/h (0 Bft) N 0,00 h 0,0 UV-I 0 W/m -5,5 C -4,3 C 0,9 km/h (0 Bft)
05.02.2018 06:00 22,0 C -4,8 C 59 % 92 % 1025,9 hPa 0,0 l/m 0,3 km/h (0 Bft) N 0,00 h 0,0 UV-I 0 W/m -5,9 C -4,8 C 0,9 km/h (0 Bft)
05.02.2018 07:00 22,1 C -5,3 C 59 % 92 % 1026,3 hPa 0,0 l/m 0,6 km/h (0 Bft) N-NO 0,00 h 0,0 UV-I 8 W/m -6,4 C -5,3 C 1,5 km/h (1 Bft)
05.02.2018 08:00 22,2 C -5,1 C 59 % 93 % 1026,8 hPa 0,0 l/m 1,4 km/h (1 Bft) N 0,00 h 0,0 UV-I 33 W/m -6,1 C -5,1 C 2,7 km/h (1 Bft)
05.02.2018 09:00 22,6 C -2,6 C 58 % 90 % 1026,7 hPa 0,0 l/m 2,8 km/h (1 Bft) NO 0,47 h 0,5 UV-I 134 W/m -4,0 C -2,9 C 6,0 km/h (2 Bft)
05.02.2018 10:00 22,8 C -2,0 C 58 % 86 % 1027,0 hPa 0,0 l/m 6,8 km/h (2 Bft) O-NO 0,00 h 0,5 UV-I 66 W/m -4,0 C -3,5 C 13,1 km/h (3 Bft)
05.02.2018 11:00 22,7 C -1,6 C 58 % 85 % 1026,8 hPa 0,0 l/m 4,3 km/h (1 Bft) O-NO 0,00 h 0,5 UV-I 72 W/m -3,8 C -1,9 C 9,1 km/h (2 Bft)
05.02.2018 12:00 22,6 C -1,0 C 58 % 80 % 1026,1 hPa 0,0 l/m 6,5 km/h (2 Bft) O-NO 0,03 h 0,6 UV-I 113 W/m -3,9 C -2,3 C 12,2 km/h (2 Bft)
05.02.2018 13:00 22,6 C -0,9 C 58 % 77 % 1025,7 hPa 0,0 l/m 5,3 km/h (1 Bft) O-NO 0,00 h 0,5 UV-I 79 W/m -4,4 C -1,4 C 11,0 km/h (2 Bft)
05.02.2018 14:00 22,4 C -0,9 C 58 % 77 % 1025,3 hPa 0,0 l/m 4,2 km/h (1 Bft) O-NO 0,00 h 0,0 UV-I 47 W/m -4,4 C -1,1 C 8,9 km/h (2 Bft)
05.02.2018 15:00 22,4 C -1,0 C 58 % 77 % 1024,9 hPa 0,0 l/m 5,3 km/h (1 Bft) O-NO 0,00 h 0,0 UV-I 32 W/m -4,5 C -1,8 C 10,3 km/h (2 Bft)
05.02.2018 16:00 22,4 C -1,3 C 58 % 77 % 1024,7 hPa 0,0 l/m 4,9 km/h (1 Bft) O-NO 0,00 h 0,0 UV-I 13 W/m -4,8 C -1,8 C 9,4 km/h (2 Bft)
05.02.2018 17:00 22,4 C -1,7 C 58 % 78 % 1024,5 hPa 0,0 l/m 5,9 km/h (2 Bft) N-NO 0,00 h 0,0 UV-I 0 W/m -5,0 C -2,2 C 9,9 km/h (2 Bft)
05.02.2018 18:00 22,3 C -2,3 C 58 % 80 % 1024,4 hPa 0,0 l/m 4,0 km/h (1 Bft) N-NO 0,00 h 0,0 UV-I 0 W/m -5,3 C -2,5 C 7,1 km/h (2 Bft)
05.02.2018 19:00 22,3 C -3,0 C 58 % 84 % 1024,1 hPa 0,0 l/m 3,3 km/h (1 Bft) N 0,00 h 0,0 UV-I 0 W/m -5,4 C -3,0 C 6,0 km/h (2 Bft)
05.02.2018 20:00 22,4 C -3,6 C 59 % 86 % 1023,8 hPa 0,0 l/m 2,3 km/h (1 Bft) N 0,00 h 0,0 UV-I 0 W/m -5,7 C -3,6 C 4,7 km/h (1 Bft)
05.02.2018 21:00 22,5 C -4,2 C 59 % 87 % 1023,8 hPa 0,0 l/m 1,6 km/h (1 Bft) O-NO 0,00 h 0,0 UV-I 0 W/m -6,0 C -4,2 C 2,6 km/h (1 Bft)
05.02.2018 22:00 22,5 C -4,7 C 59 % 89 % 1023,5 hPa 0,0 l/m 2,2 km/h (1 Bft) N-NO 0,00 h 0,0 UV-I 0 W/m -6,2 C -4,7 C 4,4 km/h (1 Bft)
05.02.2018 23:00 22,5 C -3,5 C 59 % 88 % 1022,9 hPa 0,0 l/m 5,4 km/h (1 Bft) O-NO 0,00 h 0,0 UV-I 0 W/m -5,3 C -4,1 C 10,1 km/h (2 Bft)
06.02.2018 00:00 22,4 C -3,1 C 59 % 83 % 1022,5 hPa 0,0 l/m 7,0 km/h (2 Bft) O 0,00 h 0,0 UV-I 0 W/m -5,5 C -4,7 C 13,0 km/h (3 Bft)
06.02.2018 01:00 22,2 C -3,6 C 60 % 83 % 1021,8 hPa 0,0 l/m 5,4 km/h (1 Bft) O-NO 0,00 h 0,0 UV-I 0 W/m -6,0 C -4,1 C 10,3 km/h (2 Bft)
06.02.2018 02:00 22,1 C -4,3 C 60 % 85 % 1021,3 hPa 0,0 l/m 4,9 km/h (1 Bft) O-NO 0,00 h 0,0 UV-I 0 W/m -6,5 C -4,6 C 9,0 km/h (2 Bft)
06.02.2018 03:00 21,9 C -4,8 C 61 % 85 % 1020,6 hPa 0,0 l/m 3,7 km/h (1 Bft) O-NO 0,00 h 0,0 UV-I 0 W/m -6,9 C -4,9 C 6,5 km/h (2 Bft)
06.02.2018 04:00 21,9 C -5,2 C 61 % 86 % 1020,1 hPa 0,0 l/m 2,6 km/h (1 Bft) O-NO 0,00 h 0,0 UV-I 0 W/m -7,2 C -5,2 C 4,6 km/h (1 Bft)
06.02.2018 05:00 21,8 C -5,3 C 61 % 87 % 1019,6 hPa 0,0 l/m 2,6 km/h (1 Bft) O-NO 0,00 h 0,0 UV-I 0 W/m -7,1 C -5,3 C 5,1 km/h (1 Bft)
06.02.2018 06:00 21,9 C -5,0 C 60 % 88 % 1018,8 hPa 0,0 l/m 2,0 km/h (1 Bft) O 0,00 h 0,0 UV-I 0 W/m -6,7 C -5,0 C 4,3 km/h (1 Bft)
06.02.2018 07:00 22,0 C -4,9 C 60 % 89 % 1018,3 hPa 0,0 l/m 3,0 km/h (1 Bft) O 0,00 h 0,0 UV-I 9 W/m -6,4 C -4,9 C 6,0 km/h (2 Bft)
06.02.2018 08:00 22,1 C -4,4 C 60 % 89 % 1018,3 hPa 0,0 l/m 1,8 km/h (1 Bft) O 0,00 h 0,0 UV-I 67 W/m -6,0 C -4,4 C 4,1 km/h (1 Bft)
06.02.2018 09:00 22,2 C -3,1 C 59 % 85 % 1018,0 hPa 0,0 l/m 6,7 km/h (2 Bft) O-SO 0,28 h 0,6 UV-I 136 W/m -5,4 C -4,6 C 12,3 km/h (3 Bft)
06.02.2018 10:00 22,2 C -2,9 C 58 % 83 % 1017,3 hPa 0,0 l/m 7,1 km/h (2 Bft) O 0,73 h 0,8 UV-I 171 W/m -5,4 C -4,5 C 13,4 km/h (3 Bft)
06.02.2018 11:00 22,2 C -2,0 C 56 % 80 % 1017,1 hPa 0,0 l/m 8,1 km/h (2 Bft) O-SO 1,00 h 1,1 UV-I 314 W/m -5,0 C -4,2 C 13,4 km/h (3 Bft)
06.02.2018 12:00 22,4 C -0,8 C 56 % 77 % 1016,5 hPa 0,0 l/m 6,9 km/h (2 Bft) O-NO 1,00 h 1,3 UV-I 395 W/m -4,3 C -2,2 C 12,6 km/h (3 Bft)
06.02.2018 13:00 22,8 C -0,7 C 55 % 76 % 1015,9 hPa 0,0 l/m 6,1 km/h (2 Bft) O 1,00 h 1,1 UV-I 347 W/m -4,4 C -1,5 C 12,2 km/h (2 Bft)
06.02.2018 14:00 23,1 C -0,8 C 49 % 76 % 1015,1 hPa 0,0 l/m 7,1 km/h (2 Bft) O-SO 1,00 h 0,8 UV-I 226 W/m -4,5 C -2,4 C 12,1 km/h (2 Bft)
06.02.2018 15:00 22,9 C -1,1 C 49 % 78 % 1014,4 hPa 0,0 l/m 4,7 km/h (1 Bft) O-NO 0,08 h 0,5 UV-I 106 W/m -4,4 C -1,7 C 9,9 km/h (2 Bft)
06.02.2018 16:00 22,7 C -1,2 C 51 % 79 % 1014,2 hPa 0,0 l/m 4,1 km/h (1 Bft) O-NO 0,00 h 0,0 UV-I 33 W/m -4,3 C -1,4 C 8,1 km/h (2 Bft)
06.02.2018 17:00 22,5 C -1,5 C 52 % 80 % 1014,0 hPa 0,0 l/m 3,8 km/h (1 Bft) O-NO 0,00 h 0,0 UV-I 6 W/m -4,5 C -1,7 C 8,3 km/h (2 Bft)
06.02.2018 18:00 22,3 C -1,4 C 52 % 80 % 1014,4 hPa 0,0 l/m 3,9 km/h (1 Bft) O-NO 0,00 h 0,0 UV-I 0 W/m -4,4 C -1,5 C 7,7 km/h (2 Bft)
06.02.2018 19:00 22,2 C -1,7 C 54 % 82 % 1014,1 hPa 0,0 l/m 4,8 km/h (1 Bft) O-NO 0,00 h 0,0 UV-I 0 W/m -4,5 C -2,1 C 9,4 km/h (2 Bft)
06.02.2018 20:00 22,3 C -2,2 C 55 % 82 % 1013,9 hPa 0,0 l/m 4,7 km/h (1 Bft) O-NO 0,00 h 0,0 UV-I 0 W/m -4,9 C -2,4 C 9,0 km/h (2 Bft)
06.02.2018 21:00 22,3 C -2,8 C 56 % 83 % 1013,8 hPa 0,0 l/m 5,4 km/h (1 Bft) O-NO 0,00 h 0,0 UV-I 0 W/m -5,3 C -3,0 C 9,7 km/h (2 Bft)
06.02.2018 22:00 22,3 C -3,1 C 56 % 83 % 1013,4 hPa 0,0 l/m 5,3 km/h (1 Bft) O-NO 0,00 h 0,0 UV-I 0 W/m -5,5 C -3,2 C 9,7 km/h (2 Bft)
06.02.2018 23:00 22,3 C -3,5 C 57 % 85 % 1013,6 hPa 0,0 l/m 6,1 km/h (2 Bft) NO 0,00 h 0,0 UV-I 0 W/m -5,7 C -4,2 C 10,6 km/h (2 Bft)
07.02.2018 00:00 22,2 C -3,8 C 57 % 86 % 1013,7 hPa 0,0 l/m 7,1 km/h (2 Bft) NO 0,00 h 0,0 UV-I 0 W/m -5,8 C -5,0 C 12,2 km/h (2 Bft)
07.02.2018 01:00 22,0 C -4,2 C 58 % 87 % 1013,6 hPa 0,0 l/m 8,1 km/h (2 Bft) NO 0,00 h 0,0 UV-I 0 W/m -6,0 C -6,3 C 13,7 km/h (3 Bft)
07.02.2018 02:00 21,8 C -4,5 C 58 % 89 % 1013,4 hPa 0,0 l/m 6,3 km/h (2 Bft) NO 0,00 h 0,0 UV-I 0 W/m -6,0 C -5,6 C 11,5 km/h (2 Bft)
07.02.2018 03:00 21,7 C -4,6 C 59 % 89 % 1013,2 hPa 0,0 l/m 6,8 km/h (2 Bft) NO 0,00 h 0,0 UV-I 0 W/m -6,1 C -5,9 C 12,8 km/h (3 Bft)
07.02.2018 04:00 21,7 C -4,6 C 59 % 90 % 1013,3 hPa 0,0 l/m 7,9 km/h (2 Bft) O-NO 0,00 h 0,0 UV-I 0 W/m -6,0 C -6,5 C 14,4 km/h (3 Bft)
07.02.2018 05:00 21,6 C -4,1 C 59 % 90 % 1013,2 hPa 0,0 l/m 7,1 km/h (2 Bft) O-NO 0,00 h 0,0 UV-I 0 W/m -5,5 C -5,6 C 12,7 km/h (3 Bft)
07.02.2018 06:00 21,6 C -3,9 C 59 % 91 % 1013,0 hPa 0,0 l/m 7,3 km/h (2 Bft) O-NO 0,00 h 0,0 UV-I 0 W/m -5,1 C -5,5 C 12,9 km/h (3 Bft)
07.02.2018 07:00 21,7 C -3,8 C 59 % 91 % 1013,0 hPa 0,0 l/m 7,9 km/h (2 Bft) O-NO 0,00 h 0,0 UV-I 5 W/m -5,0 C -5,8 C 13,0 km/h (3 Bft)
07.02.2018 08:00 21,9 C -3,7 C 58 % 90 % 1013,5 hPa 0,0 l/m 6,9 km/h (2 Bft) O-NO 0,00 h 0,0 UV-I 18 W/m -5,0 C -5,0 C 12,7 km/h (3 Bft)
07.02.2018 09:00 21,9 C -3,3 C 56 % 90 % 1014,2 hPa 0,0 l/m 8,7 km/h (2 Bft) O-NO 0,00 h 0,0 UV-I 52 W/m -4,7 C -6,0 C 15,2 km/h (3 Bft)
07.02.2018 10:00 22,0 C -2,7 C 55 % 89 % 1014,5 hPa 0,0 l/m 7,9 km/h (2 Bft) O-NO 0,00 h 0,5 UV-I 95 W/m -4,2 C -4,9 C 14,1 km/h (3 Bft)
07.02.2018 11:00 22,1 C -1,8 C 55 % 87 % 1014,4 hPa 0,0 l/m 4,7 km/h (1 Bft) O-NO 0,48 h 0,9 UV-I 162 W/m -3,6 C -2,1 C 9,2 km/h (2 Bft)
07.02.2018 12:00 22,8 C -0,5 C 53 % 83 % 1013,8 hPa 0,0 l/m 4,1 km/h (1 Bft) O 1,00 h 1,2 UV-I 305 W/m -3,0 C -0,7 C 9,5 km/h (2 Bft)
07.02.2018 13:00 23,1 C -0,1 C 49 % 82 % 1013,4 hPa 0,0 l/m 4,1 km/h (1 Bft) O 1,00 h 1,0 UV-I 253 W/m -2,8 C -0,5 C 9,1 km/h (2 Bft)
07.02.2018 14:00 22,8 C 0,3 C 44 % 82 % 1013,0 hPa 0,0 l/m 2,5 km/h (1 Bft) O 0,92 h 0,8 UV-I 210 W/m -2,4 C 0,3 C 6,1 km/h (2 Bft)
07.02.2018 15:00 22,8 C 0,6 C 45 % 81 % 1013,1 hPa 0,0 l/m 2,3 km/h (1 Bft) O 0,27 h 0,6 UV-I 113 W/m -2,4 C 0,5 C 5,9 km/h (2 Bft)
07.02.2018 16:00 22,5 C -0,5 C 44 % 83 % 1013,7 hPa 0,0 l/m 3,9 km/h (1 Bft) O-NO 0,00 h 0,0 UV-I 29 W/m -2,9 C -0,6 C 8,1 km/h (2 Bft)
07.02.2018 17:00 22,2 C -0,8 C 44 % 85 % 1014,2 hPa 0,0 l/m 2,1 km/h (1 Bft) O-NO 0,00 h 0,0 UV-I 6 W/m -3,1 C -0,8 C 4,8 km/h (1 Bft)
07.02.2018 18:00 21,5 C -1,2 C 46 % 86 % 1014,9 hPa 0,0 l/m 1,0 km/h (0 Bft) O-NO 0,00 h 0,0 UV-I 0 W/m -3,2 C -1,2 C 2,6 km/h (1 Bft)
07.02.2018 19:00 21,5 C -1,3 C 48 % 88 % 1015,4 hPa 0,0 l/m 4,6 km/h (1 Bft) N 0,00 h 0,0 UV-I 0 W/m -3,0 C -1,6 C 7,4 km/h (2 Bft)
07.02.2018 20:00 21,6 C -1,3 C 49 % 89 % 1015,6 hPa 0,0 l/m 6,5 km/h (2 Bft) N 0,00 h 0,0 UV-I 0 W/m -2,9 C -1,9 C 9,5 km/h (2 Bft)
07.02.2018 21:00 21,9 C -1,4 C 51 % 89 % 1015,9 hPa 0,0 l/m 4,8 km/h (1 Bft) N 0,00 h 0,0 UV-I 0 W/m -3,0 C -1,5 C 7,5 km/h (2 Bft)
07.02.2018 22:00 22,1 C -1,4 C 52 % 89 % 1016,1 hPa 0,0 l/m 6,3 km/h (2 Bft) N 0,00 h 0,0 UV-I 0 W/m -3,0 C -2,2 C 8,8 km/h (2 Bft)
07.02.2018 23:00 22,1 C -1,6 C 53 % 88 % 1016,4 hPa 0,0 l/m 8,3 km/h (2 Bft) N-NW 0,00 h 0,0 UV-I 0 W/m -3,3 C -3,6 C 11,3 km/h (2 Bft)
08.02.2018 00:00 22,1 C -1,7 C 54 % 88 % 1016,6 hPa 0,0 l/m 6,2 km/h (2 Bft) N-NW 0,00 h 0,0 UV-I 0 W/m -3,4 C -2,6 C 8,8 km/h (2 Bft)
08.02.2018 01:00 21,9 C -1,7 C 54 % 88 % 1016,9 hPa 0,0 l/m 4,0 km/h (1 Bft) N-NW 0,00 h 0,0 UV-I 0 W/m -3,5 C -1,8 C 6,1 km/h (2 Bft)
08.02.2018 02:00 21,8 C -1,8 C 56 % 87 % 1016,9 hPa 0,0 l/m 5,3 km/h (1 Bft) N-NW 0,00 h 0,0 UV-I 0 W/m -3,6 C -2,1 C 8,1 km/h (2 Bft)
08.02.2018 03:00 21,7 C -2,1 C 56 % 88 % 1017,0 hPa 0,0 l/m 3,2 km/h (1 Bft) N-NW 0,00 h 0,0 UV-I 0 W/m -3,9 C -2,4 C 5,5 km/h (1 Bft)
08.02.2018 04:00 21,7 C -2,2 C 55 % 88 % 1017,2 hPa 0,0 l/m 6,6 km/h (2 Bft) N-NW 0,00 h 0,0 UV-I 0 W/m -4,0 C -3,3 C 9,9 km/h (2 Bft)
08.02.2018 05:00 21,6 C -2,4 C 55 % 88 % 1017,8 hPa 0,0 l/m 6,7 km/h (2 Bft) N-NW 0,00 h 0,0 UV-I 0 W/m -4,1 C -3,5 C 9,7 km/h (2 Bft)
08.02.2018 06:00 21,6 C -2,7 C 55 % 87 % 1018,2 hPa 0,0 l/m 5,3 km/h (1 Bft) N-NW 0,00 h 0,0 UV-I 0 W/m -4,5 C -3,4 C 7,5 km/h (2 Bft)
08.02.2018 07:00 21,7 C -3,2 C 55 % 87 % 1018,6 hPa 0,0 l/m 1,5 km/h (1 Bft) NW 0,00 h 0,0 UV-I 12 W/m -5,0 C -3,2 C 2,9 km/h (1 Bft)
08.02.2018 08:00 21,9 C -3,4 C 56 % 89 % 1019,0 hPa 0,0 l/m 0,9 km/h (0 Bft) N-NW 0,00 h 0,0 UV-I 37 W/m -4,9 C -3,4 C 1,9 km/h (1 Bft)
08.02.2018 09:00 22,2 C -2,5 C 57 % 88 % 1019,1 hPa 0,0 l/m 2,7 km/h (1 Bft) N 0,00 h 0,5 UV-I 75 W/m -4,2 C -2,5 C 4,6 km/h (1 Bft)
08.02.2018 10:00 22,3 C -1,8 C 56 % 85 % 1019,4 hPa 0,0 l/m 0,0 km/h (0 Bft) N 0,00 h 0,6 UV-I 128 W/m -3,9 C -1,8 C 0,1 km/h (0 Bft)
08.02.2018 11:00 22,4 C -1,0 C 55 % 82 % 1019,6 hPa 0,0 l/m 0,0 km/h (0 Bft) N 0,32 h 0,8 UV-I 150 W/m -3,7 C -1,0 C 0,0 km/h (0 Bft)
08.02.2018 12:00 22,5 C -0,0 C 54 % 78 % 1019,4 hPa 0,0 l/m 0,9 km/h (0 Bft) W-NW 1,00 h 0,9 UV-I 193 W/m -3,4 C -0,0 C 2,6 km/h (1 Bft)
08.02.2018 13:00 22,7 C 0,4 C 54 % 77 % 1019,3 hPa 0,0 l/m 1,3 km/h (1 Bft) W-SW 0,28 h 0,7 UV-I 146 W/m -3,2 C 0,4 C 3,2 km/h (1 Bft)
08.02.2018 14:00 22,9 C 0,7 C 53 % 77 % 1019,1 hPa 0,0 l/m 1,8 km/h (1 Bft) W-SW 0,00 h 0,6 UV-I 124 W/m -2,9 C 0,7 C 3,5 km/h (1 Bft)
08.02.2018 15:00 22,8 C 0,8 C 53 % 76 % 1019,1 hPa 0,0 l/m 1,8 km/h (1 Bft) S 0,00 h 0,5 UV-I 71 W/m -3,0 C 0,8 C 3,6 km/h (1 Bft)
08.02.2018 16:00 22,8 C 0,6 C 53 % 76 % 1019,3 hPa 0,0 l/m 1,5 km/h (1 Bft) SW 0,00 h 0,0 UV-I 24 W/m -3,1 C 0,6 C 3,0 km/h (1 Bft)
08.02.2018 17:00 22,7 C 0,4 C 54 % 77 % 1019,4 hPa 0,0 l/m 0,3 km/h (0 Bft) SW 0,00 h 0,0 UV-I 5 W/m -3,2 C 0,4 C 0,6 km/h (0 Bft)
08.02.2018 18:00 22,6 C -0,0 C 54 % 79 % 1019,7 hPa 0,0 l/m 0,0 km/h (0 Bft) N 0,00 h 0,0 UV-I 0 W/m -3,2 C -0,0 C 0,0 km/h (0 Bft)
08.02.2018 19:00 22,5 C -0,5 C 53 % 83 % 1019,9 hPa 0,0 l/m 0,2 km/h (0 Bft) SW 0,00 h 0,0 UV-I 0 W/m -3,1 C -0,5 C 0,6 km/h (0 Bft)
08.02.2018 20:00 22,5 C -0,7 C 54 % 84 % 1019,9 hPa 0,0 l/m 1,1 km/h (1 Bft) SW 0,00 h 0,0 UV-I 0 W/m -3,1 C -0,7 C 1,9 km/h (1 Bft)
08.02.2018 21:00 22,6 C -0,9 C 54 % 86 % 1019,9 hPa 0,0 l/m 1,8 km/h (1 Bft) S 0,00 h 0,0 UV-I 0 W/m -2,9 C -0,9 C 3,1 km/h (1 Bft)
08.02.2018 22:00 22,5 C -1,1 C 55 % 88 % 1019,9 hPa 0,0 l/m 1,8 km/h (1 Bft) S 0,00 h 0,0 UV-I 0 W/m -2,9 C -1,1 C 3,0 km/h (1 Bft)
08.02.2018 23:00 22,5 C -1,4 C 55 % 88 % 1019,8 hPa 0,0 l/m 0,8 km/h (0 Bft) SW 0,00 h 0,0 UV-I 0 W/m -3,1 C -1,4 C 1,5 km/h (1 Bft)
09.02.2018 00:00 22,4 C -1,7 C 56 % 89 % 1019,7 hPa 0,0 l/m 0,0 km/h (0 Bft) N 0,00 h 0,0 UV-I 0 W/m -3,3 C -1,7 C 0,0 km/h (0 Bft)
09.02.2018 01:00 22,2 C -1,9 C 56 % 90 % 1019,7 hPa 0,0 l/m 0,0 km/h (0 Bft) N 0,00 h 0,0 UV-I 0 W/m -3,4 C -1,9 C 0,0 km/h (0 Bft)
09.02.2018 02:00 22,1 C -1,8 C 57 % 90 % 1019,6 hPa 0,0 l/m 0,7 km/h (0 Bft) SW 0,00 h 0,0 UV-I 0 W/m -3,3 C -1,8 C 1,2 km/h (1 Bft)
09.02.2018 03:00 21,9 C -1,8 C 57 % 90 % 1019,3 hPa 0,0 l/m 0,1 km/h (0 Bft) SW 0,00 h 0,0 UV-I 0 W/m -3,2 C -1,8 C 0,2 km/h (0 Bft)
09.02.2018 04:00 21,8 C -1,8 C 57 % 90 % 1018,9 hPa 0,0 l/m 0,0 km/h (0 Bft) N 0,00 h 0,0 UV-I 0 W/m -3,2 C -1,8 C 0,0 km/h (0 Bft)
09.02.2018 05:00 21,8 C -1,8 C 57 % 90 % 1018,7 hPa 0,0 l/m 0,8 km/h (0 Bft) S 0,00 h 0,0 UV-I 0 W/m -3,2 C -1,8 C 1,5 km/h (1 Bft)
09.02.2018 06:00 21,8 C -2,3 C 57 % 90 % 1018,6 hPa 0,0 l/m 0,0 km/h (0 Bft) S-SW 0,00 h 0,0 UV-I 0 W/m -3,6 C -2,3 C 0,0 km/h (0 Bft)
09.02.2018 07:00 22,0 C -2,8 C 57 % 92 % 1018,7 hPa 0,0 l/m 0,4 km/h (0 Bft) S-SW 0,00 h 0,0 UV-I 6 W/m -3,9 C -2,8 C 0,7 km/h (0 Bft)
09.02.2018 08:00 22,2 C -2,6 C 56 % 92 % 1018,7 hPa 0,0 l/m 1,3 km/h (1 Bft) S-SW 0,00 h 0,0 UV-I 15 W/m -3,6 C -2,6 C 2,6 km/h (1 Bft)
09.02.2018 09:00 22,3 C -2,0 C 56 % 92 % 1018,6 hPa 0,0 l/m 2,3 km/h (1 Bft) SW 0,00 h 0,0 UV-I 33 W/m -3,1 C -1,9 C 3,9 km/h (1 Bft)
09.02.2018 10:00 22,4 C -1,6 C 56 % 89 % 1018,4 hPa 0,0 l/m 3,5 km/h (1 Bft) SW 0,00 h 0,0 UV-I 37 W/m -3,1 C -1,6 C 5,7 km/h (1 Bft)
09.02.2018 11:00 22,3 C -1,3 C 52 % 88 % 1017,9 hPa 0,0 l/m 3,7 km/h (1 Bft) S-SW 0,00 h 0,0 UV-I 49 W/m -3,0 C -1,3 C 6,1 km/h (2 Bft)
09.02.2018 12:00 22,3 C -1,0 C 53 % 88 % 1017,4 hPa 0,0 l/m 3,3 km/h (1 Bft) SW 0,00 h 0,0 UV-I 50 W/m -2,8 C -1,0 C 5,4 km/h (1 Bft)
09.02.2018 13:00 22,2 C -0,9 C 53 % 88 % 1017,0 hPa 0,0 l/m 3,7 km/h (1 Bft) S 0,00 h 0,0 UV-I 43 W/m -2,7 C -1,1 C 6,0 km/h (2 Bft)
09.02.2018 14:00 21,7 C -0,9 C 54 % 87 % 1016,6 hPa 0,0 l/m 3,6 km/h (1 Bft) S 0,00 h 0,0 UV-I 40 W/m -2,8 C -1,0 C 5,9 km/h (2 Bft)
09.02.2018 15:00 21,6 C -0,9 C 54 % 86 % 1016,2 hPa 0,0 l/m 2,3 km/h (1 Bft) S 0,00 h 0,0 UV-I 39 W/m -2,9 C -1,0 C 4,3 km/h (1 Bft)
09.02.2018 16:00 22,2 C -1,0 C 53 % 86 % 1016,1 hPa 0,0 l/m 3,5 km/h (1 Bft) S 0,00 h 0,0 UV-I 14 W/m -3,0 C -1,0 C 5,6 km/h (1 Bft)
09.02.2018 17:00 22,2 C -1,2 C 53 % 87 % 1016,0 hPa 0,0 l/m 3,8 km/h (1 Bft) S-SO 0,00 h 0,0 UV-I 5 W/m -3,1 C -1,4 C 6,2 km/h (2 Bft)
09.02.2018 18:00 22,3 C -1,3 C 54 % 88 % 1016,3 hPa 0,0 l/m 4,1 km/h (1 Bft) S-SO 0,00 h 0,0 UV-I 0 W/m -3,1 C -1,4 C 6,5 km/h (2 Bft)
09.02.2018 19:00 22,3 C -1,4 C 55 % 88 % 1016,4 hPa 0,0 l/m 3,7 km/h (1 Bft) S-SO 0,00 h 0,0 UV-I 0 W/m -3,1 C -1,6 C 5,9 km/h (2 Bft)
09.02.2018 20:00 22,3 C -1,5 C 55 % 89 % 1016,5 hPa 0,0 l/m 3,5 km/h (1 Bft) SO 0,00 h 0,0 UV-I 0 W/m -3,1 C -1,5 C 6,0 km/h (2 Bft)
09.02.2018 21:00 22,3 C -1,5 C 56 % 88 % 1016,8 hPa 0,0 l/m 4,9 km/h (1 Bft) S-SO 0,00 h 0,0 UV-I 0 W/m -3,2 C -1,6 C 7,1 km/h (2 Bft)
09.02.2018 22:00 22,3 C -1,4 C 56 % 89 % 1016,8 hPa 0,0 l/m 4,2 km/h (1 Bft) S-SO 0,00 h 0,0 UV-I 0 W/m -3,0 C -1,6 C 6,4 km/h (2 Bft)
09.02.2018 23:00 22,3 C -1,4 C 57 % 89 % 1016,7 hPa 0,0 l/m 4,6 km/h (1 Bft) S-SO 0,00 h 0,0 UV-I 0 W/m -3,0 C -1,6 C 7,0 km/h (2 Bft)
10.02.2018 00:00 22,2 C -1,4 C 57 % 87 % 1016,8 hPa 0,0 l/m 3,0 km/h (1 Bft) S 0,00 h 0,0 UV-I 0 W/m -3,2 C -1,4 C 4,8 km/h (1 Bft)
10.02.2018 01:00 22,1 C -1,4 C 57 % 87 % 1016,8 hPa 0,0 l/m 3,8 km/h (1 Bft) S 0,00 h 0,0 UV-I 0 W/m -3,3 C -1,4 C 6,0 km/h (2 Bft)
10.02.2018 02:00 22,1 C -1,5 C 58 % 87 % 1016,8 hPa 0,0 l/m 4,7 km/h (1 Bft) S-SO 0,00 h 0,0 UV-I 0 W/m -3,4 C -1,5 C 7,1 km/h (2 Bft)
10.02.2018 03:00 22,0 C -1,6 C 58 % 87 % 1016,8 hPa 0,0 l/m 3,7 km/h (1 Bft) S 0,00 h 0,0 UV-I 0 W/m -3,5 C -1,7 C 5,8 km/h (2 Bft)
10.02.2018 04:00 21,9 C -1,6 C 58 % 87 % 1016,8 hPa 0,0 l/m 2,3 km/h (1 Bft) S 0,00 h 0,0 UV-I 0 W/m -3,5 C -1,6 C 4,1 km/h (1 Bft)
10.02.2018 05:00 21,9 C -1,7 C 59 % 87 % 1016,9 hPa 0,0 l/m 1,6 km/h (1 Bft) S-SO 0,00 h 0,0 UV-I 0 W/m -3,6 C -1,8 C 2,4 km/h (1 Bft)
10.02.2018 06:00 21,9 C -1,8 C 59 % 87 % 1017,1 hPa 0,0 l/m 0,1 km/h (0 Bft) S-SO 0,00 h 0,0 UV-I 0 W/m -3,7 C -1,8 C 0,2 km/h (0 Bft)
10.02.2018 07:00 22,0 C -1,7 C 58 % 87 % 1017,5 hPa 0,0 l/m 0,3 km/h (0 Bft) S-SW 0,00 h 0,0 UV-I 5 W/m -3,5 C -1,7 C 0,8 km/h (0 Bft)
10.02.2018 08:00 22,2 C -1,6 C 58 % 88 % 1017,9 hPa 0,0 l/m 0,0 km/h (0 Bft) N 0,00 h 0,0 UV-I 15 W/m -3,4 C -1,6 C 0,0 km/h (0 Bft)
10.02.2018 09:00 22,2 C -1,5 C 58 % 88 % 1018,3 hPa 0,0 l/m 1,1 km/h (0 Bft) S-SW 0,00 h 0,0 UV-I 35 W/m -3,2 C -1,5 C 2,3 km/h (1 Bft)
10.02.2018 10:00 22,3 C -1,1 C 58 % 88 % 1018,1 hPa 0,0 l/m 1,4 km/h (1 Bft) S-SW 0,00 h 0,5 UV-I 66 W/m -2,8 C -1,1 C 3,3 km/h (1 Bft)
10.02.2018 11:00 22,3 C -0,7 C 57 % 88 % 1018,0 hPa 0,0 l/m 2,9 km/h (1 Bft) SW 0,00 h 0,5 UV-I 62 W/m -2,4 C -0,7 C 5,1 km/h (1 Bft)
10.02.2018 12:00 22,3 C -0,6 C 55 % 88 % 1017,7 hPa 0,0 l/m 3,6 km/h (1 Bft) W-SW 0,00 h 0,0 UV-I 51 W/m -2,3 C -0,6 C 6,2 km/h (2 Bft)
10.02.2018 13:00 22,6 C -0,4 C 55 % 88 % 1017,4 hPa 0,0 l/m 2,0 km/h (1 Bft) SW 0,00 h 0,0 UV-I 50 W/m -2,2 C -0,4 C 3,8 km/h (1 Bft)
10.02.2018 14:00 22,4 C -0,4 C 54 % 88 % 1017,1 hPa 0,0 l/m 3,7 km/h (1 Bft) S 0,00 h 0,0 UV-I 41 W/m -2,1 C -0,5 C 6,2 km/h (2 Bft)
10.02.2018 15:00 22,3 C -0,4 C 54 % 89 % 1017,1 hPa 0,0 l/m 3,8 km/h (1 Bft) S 0,00 h 0,0 UV-I 36 W/m -2,0 C -0,4 C 6,5 km/h (2 Bft)
10.02.2018 16:00 22,3 C -0,3 C 55 % 89 % 1017,0 hPa 0,0 l/m 2,7 km/h (1 Bft) S 0,00 h 0,0 UV-I 15 W/m -1,9 C -0,3 C 5,2 km/h (1 Bft)
10.02.2018 17:00 22,3 C -0,4 C 55 % 90 % 1016,9 hPa 0,0 l/m 3,6 km/h (1 Bft) S 0,00 h 0,0 UV-I 0 W/m -1,9 C -0,4 C 6,2 km/h (2 Bft)
10.02.2018 18:00 22,4 C -0,4 C 55 % 91 % 1016,9 hPa 0,0 l/m 4,3 km/h (1 Bft) S 0,00 h 0,0 UV-I 0 W/m -1,7 C -0,4 C 7,4 km/h (2 Bft)
10.02.2018 19:00 22,3 C -0,3 C 55 % 91 % 1016,8 hPa 0,0 l/m 5,0 km/h (1 Bft) S 0,00 h 0,0 UV-I 0 W/m -1,6 C -0,6 C 8,8 km/h (2 Bft)
10.02.2018 20:00 22,3 C -0,3 C 56 % 91 % 1016,6 hPa 0,0 l/m 3,9 km/h (1 Bft) S-SW 0,00 h 0,0 UV-I 0 W/m -1,6 C -0,3 C 6,6 km/h (2 Bft)
10.02.2018 21:00 22,5 C -0,2 C 57 % 91 % 1016,3 hPa 0,0 l/m 3,5 km/h (1 Bft) W-SW 0,00 h 0,0 UV-I 0 W/m -1,5 C -0,3 C 6,4 km/h (2 Bft)
10.02.2018 22:00 22,6 C -0,1 C 57 % 91 % 1016,0 hPa 0,0 l/m 6,5 km/h (2 Bft) SW 0,00 h 0,0 UV-I 0 W/m -1,4 C -0,9 C 10,6 km/h (2 Bft)
10.02.2018 23:00 22,6 C -0,1 C 57 % 91 % 1015,6 hPa 0,0 l/m 6,3 km/h (2 Bft) SW 0,00 h 0,0 UV-I 0 W/m -1,4 C -1,0 C 10,3 km/h (2 Bft)
11.02.2018 00:00 22,6 C -0,3 C 58 % 93 % 1015,0 hPa 0,0 l/m 4,8 km/h (1 Bft) SW 0,00 h 0,0 UV-I 0 W/m -1,4 C -0,8 C 8,4 km/h (2 Bft)
11.02.2018 01:00 22,4 C -0,5 C 58 % 93 % 1014,3 hPa 0,0 l/m 3,0 km/h (1 Bft) S-SW 0,00 h 0,0 UV-I 0 W/m -1,5 C -0,4 C 5,6 km/h (1 Bft)
11.02.2018 02:00 22,3 C -0,5 C 58 % 92 % 1013,9 hPa 0,0 l/m 3,9 km/h (1 Bft) S 0,00 h 0,0 UV-I 0 W/m -1,6 C -0,5 C 6,8 km/h (2 Bft)
11.02.2018 03:00 22,3 C -0,5 C 59 % 91 % 1013,1 hPa 0,0 l/m 3,8 km/h (1 Bft) S-SW 0,00 h 0,0 UV-I 0 W/m -1,7 C -0,5 C 6,8 km/h (2 Bft)
11.02.2018 04:00 22,2 C -0,6 C 59 % 91 % 1012,1 hPa 0,0 l/m 5,3 km/h (1 Bft) S 0,00 h 0,0 UV-I 0 W/m -1,8 C -0,8 C 8,7 km/h (2 Bft)
11.02.2018 05:00 22,1 C -0,6 C 59 % 92 % 1011,6 hPa 0,0 l/m 4,6 km/h (1 Bft) S-SW 0,00 h 0,0 UV-I 0 W/m -1,7 C -0,7 C 7,8 km/h (2 Bft)
11.02.2018 06:00 22,1 C -0,5 C 59 % 92 % 1011,0 hPa 0,0 l/m 5,2 km/h (1 Bft) S 0,00 h 0,0 UV-I 0 W/m -1,6 C -0,7 C 8,6 km/h (2 Bft)
11.02.2018 07:00 22,2 C -0,4 C 59 % 92 % 1010,4 hPa 0,0 l/m 7,5 km/h (2 Bft) S 0,00 h 0,0 UV-I 6 W/m -1,6 C -1,8 C 11,4 km/h (2 Bft)
11.02.2018 08:00 22,3 C -0,3 C 58 % 91 % 1009,8 hPa 0,0 l/m 7,9 km/h (2 Bft) S 0,00 h 0,0 UV-I 49 W/m -1,6 C -2,1 C 12,0 km/h (2 Bft)
11.02.2018 09:00 22,4 C 0,5 C 58 % 88 % 1009,1 hPa 0,0 l/m 8,4 km/h (2 Bft) S 0,22 h 0,5 UV-I 123 W/m -1,4 C -1,7 C 13,7 km/h (3 Bft)
11.02.2018 10:00 22,9 C 1,2 C 57 % 81 % 1008,2 hPa 0,0 l/m 10,7 km/h (2 Bft) S 0,58 h 0,7 UV-I 169 W/m -1,7 C -2,5 C 16,9 km/h (3 Bft)
11.02.2018 11:00 22,8 C 1,3 C 54 % 79 % 1007,5 hPa 0,0 l/m 11,0 km/h (2 Bft) S 0,08 h 0,7 UV-I 123 W/m -2,0 C -2,6 C 17,8 km/h (3 Bft)
11.02.2018 12:00 22,5 C 1,5 C 49 % 80 % 1006,8 hPa 0,0 l/m 12,8 km/h (3 Bft) S 0,77 h 0,9 UV-I 183 W/m -1,6 C -3,5 C 20,3 km/h (4 Bft)
11.02.2018 13:00 22,4 C 1,2 C 51 % 83 % 1006,2 hPa 0,0 l/m 7,8 km/h (2 Bft) S-SO 0,20 h 0,6 UV-I 110 W/m -1,3 C -0,5 C 13,0 km/h (3 Bft)
11.02.2018 14:00 22,4 C 0,9 C 52 % 90 % 1005,8 hPa 0,0 l/m 7,5 km/h (2 Bft) S 0,00 h 0,5 UV-I 90 W/m -0,6 C -0,5 C 12,6 km/h (3 Bft)
11.02.2018 15:00 22,6 C 0,5 C 54 % 93 % 1005,6 hPa 0,0 l/m 5,9 km/h (2 Bft) S 0,00 h 0,0 UV-I 29 W/m -0,5 C -0,0 C 9,8 km/h (2 Bft)
11.02.2018 16:00 23,0 C 0,4 C 53 % 94 % 1005,6 hPa 0,0 l/m 7,7 km/h (2 Bft) S 0,00 h 0,0 UV-I 12 W/m -0,5 C -1,1 C 12,2 km/h (2 Bft)
11.02.2018 17:00 23,1 C 0,5 C 53 % 95 % 1005,7 hPa 0,0 l/m 5,7 km/h (1 Bft) S-SW 0,00 h 0,0 UV-I 0 W/m -0,2 C 0,1 C 10,5 km/h (2 Bft)
11.02.2018 18:00 23,1 C 0,6 C 59 % 95 % 1005,8 hPa 0,0 l/m 4,6 km/h (1 Bft) SW 0,00 h 0,0 UV-I 0 W/m -0,1 C 0,4 C 8,7 km/h (2 Bft)
11.02.2018 19:00 23,2 C 0,8 C 58 % 93 % 1006,0 hPa 0,0 l/m 6,6 km/h (2 Bft) SW 0,00 h 0,0 UV-I 0 W/m -0,2 C -0,3 C 11,7 km/h (2 Bft)
11.02.2018 20:00 23,2 C 0,8 C 59 % 92 % 1006,3 hPa 0,0 l/m 6,4 km/h (2 Bft) SW 0,00 h 0,0 UV-I 0 W/m -0,3 C -0,0 C 11,2 km/h (2 Bft)
11.02.2018 21:00 23,2 C 0,9 C 59 % 93 % 1006,5 hPa 0,0 l/m 5,0 km/h (1 Bft) S-SW 0,00 h 0,0 UV-I 0 W/m -0,1 C 0,5 C 9,7 km/h (2 Bft)
11.02.2018 22:00 23,2 C 0,8 C 59 % 94 % 1006,9 hPa 0,0 l/m 2,9 km/h (1 Bft) SW 0,00 h 0,0 UV-I 0 W/m 0,0 C 0,8 C 5,8 km/h (1 Bft)
11.02.2018 23:00 23,2 C 0,9 C 59 % 95 % 1007,3 hPa 0,0 l/m 6,1 km/h (2 Bft) SW 0,00 h 0,0 UV-I 0 W/m 0,1 C 0,1 C 10,9 km/h (2 Bft)
Min-Datum _ 07.02.18 05.02.18 07.02.18 06.02.18 11.02.18 - 05.02.18 - - - - 06.02.18 07.02.18 05.02.18
_ Min-Zeit 18:20 07:54 18:05 13:10 15:48 - 00:00 - - - - 05:00 03:52 00:01
Minimum _ 21,3 C -5,5 C 39 % 72 % 1005,5 hPa - 0,0 km/h (0 Bft) - - - - -7,4 C -12,3 C 0,0 km/h (0 Bft)
Max-Datum _ 11.02.18 11.02.18 05.02.18 11.02.18 05.02.18 05.02.18 11.02.18 - 05.02.18 06.02.18 06.02.18 11.02.18 11.02.18 11.02.18
_ Max-Zeit 19:11 12:28 03:21 17:02 10:54 00:00 10:52 - 09:08 11:41 11:58 23:26 12:14 10:52
Maximum _ 23,3 C 1,8 C 62 % 95 % 1027,2 hPa 0,0 l/m 22,5 km/h
S (4 Bft)
- 0,02 h 1,3 UV-I 462 W/m 0,2 C 1,6 C 30,6 km/h
S (5 Bft)
Durchschnitt _ 22,3 C -1,6 C 56 % 87 % 1016,9 hPa #0,0 l/m 4,0 km/h (1 Bft) O-NO #12:43 h 0,7 UV-I 84 W/m -3,5 C -2,1 C 7,1 km/h (2 Bft)